Вернуться в каталог

STARLINK-37015

АктивенСвязьSSO
NORAD 68825·PAYLOAD·🇺🇸 United States

Запущен Apr 23, 2026 с Vandenberg Space Force Base

Loading…

Ближайшие Пролёты (ближайшие 24 часа)

TLE

СвежийSource: CelesTrak SupGP

Эпоха: Sep 15, 2026, 03:03 UTC

1 68825C 26089Z   26258.12756944 -.00026918  00000+0 -83552-3 0  2586
2 68825  97.2846 104.0330 0002170  90.7788 137.4928 15.33454495    15

Отслеживайте STARLINK-37015 в реальном времени с AllMySat

Download on the App Store